2023/02/15 00:00:00,13.7,-4.3
2023/02/15 00:10:00,13.6,-4.4
2023/02/15 00:20:00,13.4,-4.6
2023/02/15 00:30:00,13.4,-4.8
2023/02/15 00:40:00,13.5,-4.8
2023/02/15 00:50:00,13.8,-4.9
2023/02/15 01:00:00,13.3,-4.8
2023/02/15 01:10:00,13.3,-4.8
2023/02/15 01:20:00,13.6,-5.0
2023/02/15 01:30:00,13.4,-5.5
2023/02/15 01:40:00,13.4,-5.3
2023/02/15 01:50:00,13.4,-5.2
2023/02/15 02:00:00,14.1,-5.1
2023/02/15 02:10:00,14.2,-5.0
2023/02/15 02:20:00,14.5,-5.5
2023/02/15 02:30:00,14.4,-5.5
2023/02/15 02:40:00,14.3,-5.6
2023/02/15 02:50:00,14.1,-5.6
2023/02/15 03:00:00,14.1,-5.7
2023/02/15 03:10:00,14.2,-5.9
2023/02/15 03:20:00,14.2,-5.8
2023/02/15 03:30:00,13.9,-5.9
2023/02/15 03:40:00,14.1,-5.8
2023/02/15 03:50:00,14.1,-5.6
2023/02/15 04:00:00,13.9,-5.7
2023/02/15 04:10:00,13.9,-5.5
2023/02/15 04:20:00,14.3,-5.9
2023/02/15 04:30:00,13.9,-5.6
2023/02/15 04:40:00,14.6,-5.5
2023/02/15 04:50:00,14.2,-5.6
2023/02/15 05:00:00,14.0,-5.7
2023/02/15 05:10:00,14.3,-5.4
2023/02/15 05:20:00,13.9,-5.2
2023/02/15 05:30:00,14.0,-5.2
2023/02/15 05:40:00,14.4,-4.8
2023/02/15 05:50:00,14.5,-5.5
2023/02/15 06:00:00,14.3,-5.6
2023/02/15 06:10:00,14.3,-5.6
2023/02/15 06:20:00,14.3,-5.3
2023/02/15 06:30:00,14.2,-5.5
2023/02/15 06:40:00,14.1,-5.3
2023/02/15 06:50:00,14.0,-5.1
2023/02/15 07:00:00,14.4,-4.9
2023/02/15 07:10:00,14.3,-5.4
2023/02/15 07:20:00,14.5,-5.5
2023/02/15 07:30:00,14.6,-5.5
2023/02/15 07:40:00,14.5,-5.3
2023/02/15 07:50:00,14.6,-5.2
2023/02/15 08:00:00,14.5,-5.0
2023/02/15 08:10:00,15.3,-4.9
2023/02/15 08:20:00,15.8,-4.7
2023/02/15 08:30:00,15.8,-4.6
2023/02/15 08:40:00,16.0,-4.3
2023/02/15 08:50:00,15.5,-4.0
2023/02/15 09:00:00,15.8,-3.8
2023/02/15 09:10:00,15.9,-3.9
2023/02/15 09:20:00,16.1,-3.5
2023/02/15 09:30:00,15.9,-3.0
2023/02/15 09:40:00,15.4,-2.9
2023/02/15 09:50:00,15.5,-3.3
2023/02/15 10:00:00,15.0,-4.2
2023/02/15 10:10:00,16.1,-3.8
2023/02/15 10:20:00,16.1,-3.4
2023/02/15 10:30:00,15.9,-3.1
2023/02/15 10:40:00,15.8,-3.8
2023/02/15 10:50:00,15.8,-3.5
2023/02/15 11:00:00,15.6,-3.9
2023/02/15 11:10:00,15.7,-3.5
2023/02/15 11:20:00,15.5,-3.5
2023/02/15 11:30:00,15.9,-3.0
2023/02/15 11:40:00,16.0,-3.2
2023/02/15 11:50:00,15.7,-3.6
2023/02/15 12:00:00,15.9,-3.3
2023/02/15 12:10:00,16.1,-2.1
2023/02/15 12:20:00,16.0,-2.4
2023/02/15 12:30:00,16.1,-3.2
2023/02/15 12:40:00,16.4,-3.2
2023/02/15 12:50:00,16.5,-3.0
2023/02/15 13:00:00,16.5,-3.5
2023/02/15 13:10:00,15.9,-3.7
2023/02/15 13:20:00,16.1,-3.4
2023/02/15 13:30:00,16.2,-3.7
2023/02/15 13:40:00,17.0,-3.3
2023/02/15 13:50:00,16.9,-2.9
2023/02/15 14:00:00,17.0,-2.1
2023/02/15 14:10:00,16.9,-2.8
2023/02/15 14:20:00,16.9,-3.3
2023/02/15 14:30:00,17.3,-3.2
2023/02/15 14:40:00,16.9,-3.3
2023/02/15 14:50:00,17.4,-3.4
2023/02/15 15:00:00,17.5,-2.4
2023/02/15 15:10:00,17.5,-2.5
2023/02/15 15:20:00,17.5,-2.5
2023/02/15 15:30:00,17.2,-3.3
2023/02/15 15:40:00,17.3,-3.9
2023/02/15 15:50:00,17.3,-3.7
2023/02/15 16:00:00,17.3,-3.8
2023/02/15 16:10:00,17.4,-3.7
2023/02/15 16:20:00,17.5,-3.7
2023/02/15 16:30:00,17.1,-4.0
2023/02/15 16:40:00,16.9,-4.1
2023/02/15 16:50:00,17.0,-4.3
2023/02/15 17:00:00,16.8,-4.2
2023/02/15 17:10:00,17.3,-4.2
2023/02/15 17:20:00,17.5,-4.1
2023/02/15 17:30:00,17.5,-4.4
2023/02/15 17:40:00,17.5,-4.5
2023/02/15 17:50:00,17.6,-4.5
2023/02/15 18:00:00,17.8,-4.5
2023/02/15 18:10:00,17.8,-4.6
2023/02/15 18:20:00,18.0,-4.8
2023/02/15 18:30:00,17.8,-4.8
2023/02/15 18:40:00,18.0,-4.8
2023/02/15 18:50:00,18.2,-4.8
2023/02/15 19:00:00,18.4,-4.8
2023/02/15 19:10:00,18.4,-5.0
2023/02/15 19:20:00,19.0,-4.8
2023/02/15 19:30:00,19.4,-4.7
2023/02/15 19:40:00,19.8,-4.6
2023/02/15 19:50:00,20.1,-4.8
2023/02/15 20:00:00,20.1,-4.5
2023/02/15 20:10:00,20.2,-4.6
2023/02/15 20:20:00,20.9,-4.5
2023/02/15 20:30:00,20.8,-4.6
2023/02/15 20:40:00,21.1,-4.3
2023/02/15 20:50:00,21.3,-4.4
2023/02/15 21:00:00,21.2,-4.4
2023/02/15 21:10:00,21.0,-4.3
2023/02/15 21:20:00,21.1,-4.4
2023/02/15 21:30:00,21.1,-4.5
2023/02/15 21:40:00,20.9,-4.5
2023/02/15 21:50:00,20.9,-4.3
2023/02/15 22:00:00,20.9,-4.3
2023/02/15 22:10:00,20.9,-4.4
2023/02/15 22:20:00,20.9,-4.6
2023/02/15 22:30:00,20.8,-4.6
2023/02/15 22:40:00,20.9,-4.5
2023/02/15 22:50:00,20.9,-4.4
2023/02/15 23:00:00,20.8,-4.3
2023/02/15 23:10:00,20.8,-4.2
2023/02/15 23:20:00,20.8,-4.3
2023/02/15 23:30:00,20.8,-4.3
2023/02/15 23:40:00,20.8,-4.4
2023/02/15 23:50:00,20.8,-4.3
